Regional Weather Roundup
Issued by NWS Upton, NY

Current Version | Previous Version | Text Only | Print | Product List | Glossary Off
Versions: 1 2 3 4 5 6 7 8 9 10 11 12 13 14 15 16 17 18 19 20 21 22 23 24 25 26 27

000
ASUS41 KOKX 201805
RWROKX

REGIONAL WEATHER ROUNDUP
NATIONAL WEATHER SERVICE NEW YORK NY
200 PM EDT SUN APR 20 2014

NOTE: "FAIR" INDICATES FEW OR NO CLOUDS BELOW 12,000 FEET WITH NO
SIGNIFICANT WEATHER AND/OR OBSTRUCTIONS TO VISIBILITY.

NYZ071-072-176-178-NJZ106-104-201900-
NEW YORK CITY METRO AREA


CITY           SKY/WX    TMP DP  RH WIND       PRES   REMARKS
CENTRAL PARK   SUNNY     54  24  31 S9G16     30.49S
LAGUARDIA APRT PTSUNNY   55  23  28 SE14G21   30.46F
KENNEDY INTL   PTSUNNY   53  26  35 SE16      30.49S
NEWARK/LIBERTY PTSUNNY   52  23  32 SE10      30.47F
TETERBORO      SUNNY     58  27  30 S16G24    30.45F
$$

NYZ177-179-078>081-201900-
LONG ISLAND NEW YORK

CITY           SKY/WX    TMP DP  RH WIND       PRES   REMARKS
FARMINGDALE    SUNNY     51  27  39 SE14      30.47F
ISLIP          PTSUNNY   52  26  36 SE16      30.46F
SHIRLEY        MOSUNNY   51  27  39 SE9G20    30.49F
WESTHAMPTON    MOSUNNY   50  26  39 SE13G20   30.50F
MONTAUK POINT    N/A     50  32  50 SE8       30.49F
$$

NYZ052-065-067-201900-
HUDSON VALLEY

CITY           SKY/WX    TMP DP  RH WIND       PRES   REMARKS
WHITE PLAINS   SUNNY     53  21  28 SE9       30.45F
NEWBURGH       SUNNY     57  25  28 VRB6      30.43F
MONTGOMERY     SUNNY     60  26  27 VRB5      30.41F
POUGHKEEPSIE   SUNNY     61  23  23 NE5       30.41F
ALBANY         PTSUNNY   58  15  18 VRB5      30.42F
$$

NJZ001-105-106-008-010-013-015-019>022-104-201900-
NEW JERSEY

CITY           SKY/WX    TMP DP  RH WIND       PRES   REMARKS
NEWARK/LIBERTY PTSUNNY   52  23  32 SE10      30.47F
TETERBORO      SUNNY     58  27  30 S16G24    30.45F
CALDWELL       SUNNY     55  25  31 S13       30.45F
MORRISTOWN     MOSUNNY   55  27  33 S12G21    30.46F
SOMERVILLE     SUNNY     56  26  31 S9        30.44F
LINDEN         FAIR      54  27  35 SE12G17   30.50S
SUSSEX         SUNNY     61  27  27 CALM      30.41F
ANDOVER          N/A     57  25  29 CALM      30.42F
TRENTON        SUNNY     55  27  34 SE10G17   30.44F
MILLVILLE      MOSUNNY   55  32  41 E9G18     30.43F
ATLANTIC CITY  MOSUNNY   52  29  41 NE16G24   30.45F
WRIGHTSTOWN    MOSUNNY   54  27  36 E9G21     30.44F
TOMS RIVER     MOSUNNY   46  28  49 E3        30.48F
BELMAR         MOSUNNY   48  27  43 SE16G22   30.47F
$$

PAZ047>061-062-071-201900-
EASTERN PENNSYLVANIA

CITY           SKY/WX    TMP DP  RH WIND       PRES   REMARKS
PHILADELPHIA   MOSUNNY   58  29  33 E12       30.44F
ALLENTOWN      SUNNY     59  29  31 SE7       30.43F
SCRANTON       SUNNY     63  27  25 SW10      30.36F
$$

CTZ002-004>006-009-010-012-RIZ004-006-007-MAZ004-011-015-201900-
SOUTHERN NEW ENGLAND
 IN CT

CITY           SKY/WX    TMP DP  RH WIND       PRES   REMARKS
BRADLEY INTL   PTSUNNY   59  16  18 VRB3      30.44F
HARTFORD       SUNNY     57  18  21 CALM      30.44F
DANBURY        SUNNY     54  23  30 E7        30.45F
WTRBRY/OXFORD  MOSUNNY   54  27  35 S8G17     30.46F
BRIDGEPORT     SUNNY     52  24  33 E10       30.47F
MERIDEN        SUNNY     56  23  27 S9        30.46S
NEW HAVEN      MOSUNNY   52  24  33 SE9       30.48F
CHESTER        FAIR      52  25  35 S13       30.46F
GROTON         SUNNY     49  35  58 S14       30.47F
WILLIMANTIC    SUNNY     57  16  20 S8        30.44F

 IN RI

CITY           SKY/WX    TMP DP  RH WIND       PRES   REMARKS
PROVIDENCE     MOSUNNY   54  22  28 SE6       30.47F
BLOCK ISLAND   MOSUNNY   48  30  49 SE12      30.48F
WESTERLY       SUNNY     48  31  51 SE13      30.48F

 IN MA

CITY           SKY/WX    TMP DP  RH WIND       PRES   REMARKS
BOSTON         PTSUNNY   47  23  38 SE9       30.50F
WORCESTER      SUNNY     52  16  24 SE8       30.44F
WESTFIELD      SUNNY     58  14  17 CALM      30.43F
PROVINCETOWN   SUNNY     46  32  57 MISG      30.51S
NANTUCKET      MOSUNNY   48  30  49 E12       30.48S
$$

ANZ330-335-338-340-345-350-353-355-201900-
COASTAL MARINE OBSERVATIONS


STATION/POSITION TIME  SKY/WX   TEMP    WIND        PRES    VSBY  WAVE
                                AIR SEA DIR/SP/G                  HT/PER
                 (UTC)          (F)     (DEG/KT/KT) (MB)    (MI)  (FT/S)
NY HARB ENTRANCE 1800            44 44  VRB 12/ 16  1031.9
4S FIRE IS       1700               45                N/A           3/ 8
23SW MTP         1800            43 42   80/ 10/ 12 1031.9          3/ 9
HUDSON CANYON    1700            44 44   60/ 19/ 23 1030.2          8/ 7
EXECUTION ROCKS  1800            47 45   20/ 10/ 12   N/A
WESTERN LI SOUND 1800            46      60/  8/  8   N/A           1/ 3
CENTRAL LI SOUND 1700            45 43  140/  6/  6   N/A           1/ 2
EASTERN LI SOUND NOT AVBL
ROBBINS REEF     1800            45     180/ 17/ 19   N/A
$$


>>>>>>>>>>>>>>>>>>>>>>>>>>>> KEY <<<<<<<<<<<<<<<<<<<<<<<<<<<
>                                                          <
>     SKY/WX - SKY CONDITION/PRESENT WEATHER               <
>     TMP    - TEMPERATURE IN FAHRENHEIT                   <
>     DP     - DEWPOINT IN FAHRENHEIT                      <
>     RH     - RELATIVE HUMIDITY IN PERCENT                <
>     WIND   - DIRECTION AND SPEED IN MPH                  <
>     PRES   - MEAN SEA LEVEL PRESSURE IN INCHES OF HG     <
>     WCI    - WIND CHILL INDEX                            <
>     VSB    - VISIBILITY IN MILES                         <
>     HX     - HEAT INDEX                                  <
>     TC     - TEMPERATURE IN CELSIUS                      <
>     VRB    - VARIABLE WIND DIRECTION                     <
>                                                          <
>>>>>>>>>>>>>>>>>>>>>>>>>>>> KEY <<<<<<<<<<<<<<<<<<<<<<<<<<<





USA.gov is the U.S. government's official web portal to all federal, state and local government web resources and services.